Home   Weather   Filderstadt   Past weeks

Flag for Germany Past Weather in Filderstadt, Baden-Württemberg, Germany — Yesterday and Last 2 Weeks

Now
66 °F

Sunny.


Feels Like: 66 °F
Forecast: 54 / 71 °F
Wind: 2 mph from North

Location: Stuttgart-Echterdingen

Current Time: Sep 29, 2016 at 10:37:42 AM

Latest Report: Sep 29, 2016 at 10:20 AM


Visibility: 10 mi

Pressure: 30.24 "Hg

Humidity: 60%

Dew Point: 52 °F

Location of FilderstadtLocation

Past Weather in Filderstadt — Graph

°F

Filderstadt Temperature Yesterday

Maximum temperature yesterday: 73 °F (at 2:20 PM)
Minimum temperature yesterday: 48 °F (at 4:50 AM)
Average temperature yesterday: 59 °F

High & Low Weather Summary for the Past Weeks

 TemperatureHumidityPressure
High86 °F (Sep 14, 3:50 PM)100% (Sep 18, 9:20 AM)30.42 "Hg (Sep 18, 9:20 AM)
Low41 °F (Sep 22, 5:50 AM)29% (Sep 14, 4:20 PM)29.83 "Hg (Sep 15, 3:20 AM)
Average60 °F77%30.11 "Hg
* Reported Sep 14 9:20 AM — Sep 29 9:20 AM, Filderstadt, Weather by CustomWeather, © 2016

Note: Actual official high and low records may vary slightly from our data, if they occured in-between our weather recording intervals... More about our weather records

Advertising

Filderstadt Weather History for the Previous 24 Hours

Scroll right to see more
 ConditionsComfort  
Time TempWeatherWind HumidityBarometerVisibility
9:20 AM
Thu, Sep 29
59 °FSunny.1 mph68%30.27 "Hg10 mi
8:50 AM57 °FSunny.1 mph72%30.27 "Hg10 mi
8:20 AM54 °FSunny.1 mph77%30.27 "Hg10 mi
7:50 AM50 °FSunny.1 mph82%30.27 "Hg10 mi
7:20 AM50 °FSunny.1 mph94%30.27 "Hg10 mi
6:50 AM52 °FClear.2 mph77%30.27 "Hg10 mi
6:20 AM54 °FClear.1 mph77%30.27 "Hg10 mi
5:50 AM55 °FClear.2 mph72%30.27 "Hg10 mi
5:20 AM54 °FClear.No wind88%30.27 "Hg10 mi
4:50 AM55 °FClear.1 mph77%30.30 "Hg10 mi
4:20 AM55 °FClear.1 mph82%30.30 "Hg10 mi
3:50 AM55 °FClear.1 mph82%30.33 "Hg10 mi
3:20 AM55 °FPassing clouds.3 mph82%30.33 "HgN/A
2:50 AM57 °FClear.1 mph67%30.33 "Hg10 mi
2:20 AM57 °FClear.2 mph72%30.33 "Hg10 mi
1:50 AM57 °FClear.2 mph82%30.33 "Hg10 mi
1:20 AM57 °FClear.2 mph72%30.36 "Hg10 mi
12:50 AM55 °FClear.3 mph88%30.36 "Hg10 mi
12:20 AM57 °FClear.2 mph82%30.36 "Hg10 mi
11:50 PM
Wed, Sep 28
57 °FClear.2 mph77%30.36 "Hg10 mi
11:20 PM57 °FClear.1 mph77%30.36 "Hg10 mi
10:50 PM57 °FClear.2 mph77%30.36 "Hg10 mi
10:20 PM59 °FClear.1 mph72%30.36 "Hg10 mi
9:50 PM59 °FClear.2 mph72%30.36 "Hg10 mi
9:20 PM59 °FClear.3 mph68%30.36 "Hg10 mi
8:50 PM63 °FClear.3 mph68%30.36 "Hg10 mi
8:20 PM63 °FPassing clouds.3 mph64%30.36 "HgN/A
7:50 PM63 °FClear.8 mph64%30.36 "Hg10 mi
7:20 PM66 °FClear.8 mph60%30.36 "Hg10 mi
6:50 PM66 °FSunny.8 mph60%30.36 "Hg10 mi
6:20 PM68 °FPassing clouds.7 mph56%30.36 "HgN/A
5:50 PM72 °FPassing clouds.8 mph50%30.36 "HgN/A
5:20 PM72 °FSunny.1 mph57%30.33 "Hg10 mi
4:50 PM72 °FPassing clouds.6 mph61%30.33 "HgN/A
4:20 PM72 °FPassing clouds.7 mph61%30.33 "HgN/A
3:50 PM72 °FPassing clouds.6 mph61%30.33 "HgN/A
3:20 PM72 °FPartly sunny.5 mph57%30.36 "HgN/A
2:50 PM72 °FPartly sunny.7 mph53%30.36 "HgN/A
2:20 PM73 °FPartly sunny.7 mph53%30.36 "HgN/A
1:50 PM70 °FPartly sunny.7 mph60%30.36 "HgN/A
1:20 PM70 °FPartly sunny.9 mph60%30.39 "HgN/A
12:50 PM70 °FPartly sunny.8 mph60%30.39 "HgN/A
12:20 PM68 °FPartly sunny.5 mph64%30.39 "HgN/A
11:50 AM66 °FPartly sunny.5 mph73%30.42 "HgN/A
11:20 AM64 °FSunny.3 mph73%30.42 "Hg10 mi
10:50 AM63 °FSunny.2 mph77%30.42 "Hg10 mi
10:20 AM59 °FSunny.2 mph88%30.42 "Hg10 mi
Weather by CustomWeather, © 2016

See weather overviewHow to use our weather pages